Location: McFarlands Corners
(41.4117°N, 81.3382°W)
Time: 12:48:26
(UTC+00:00)

Courier 1B Rocket - Pass Details

Date: 19 February 2026
Orbit: 920 x 1201 km, 28.2° (Epoch: 10 March)

Event Time Altitude Azimuth Distance (km) Brightness Sun altitude
Rises 04:44:47 0° 254° (WSW) 3,647 - -57.6°
Reaches altitude 10° 04:48:32 10° 233° (SW) 2,748 - -57.9°
Maximum altitude 04:52:17 16° 199° (SSW) 2,404 - -58.2°
Drops below altitude 10° 04:56:10 10° 164° (SSE) 2,859 - -58.4°
Sets 05:00:12 0° 144° (SE) 3,876 - -58.7°
